Weather History for Charlevoix, MI

Change the Weather History Date:

Thursday, January 17, 2013

  Actual Average Record
Temperature  
Mean Temperature 18 °F -  
Max Temperature 21 °F 25 °F 39 °F (2015)
Min Temperature 14 °F 13 °F 3 °F (2005)
Degree Days  
Heating Degree Days 46    
Moisture  
Dew Point 6 °F    
Average Humidity 65    
Maximum Humidity 81    
Minimum Humidity 51    
Precipitation  
Precipitation 0.00 in - - ()
Sea Level Pressure  
Sea Level Pressure 30.20 in    
Wind  
Wind Speed 16 mph (NW)    
Max Wind Speed 24 mph    
Max Gust Speed 33 mph    
Visibility 7 miles    
Events Snow    
Averages and records for this station are not official NWS values.
T = Trace of Precipitation, MM = Missing Value Source: NWS Daily Summary

Daily Weather History Graph

Daily Weather History Graph

Search for Another Location

Airport:

Trip Planner

Search our weather history database for the weather conditions in past years. The results will help you decide how hot, cold, wet, or windy it might be!

Date:

Astronomy

Jan. 17, 2013 Rise Set
Actual Time 8:15 AM EST 5:27 PM EST
Civil Twilight 7:42 AM EST 6:00 PM EST
Nautical Twilight 7:06 AM EST 6:36 PM EST
Astronomical Twilight 6:30 AM EST 7:12 PM EST
Moon 11:01 AM EST (1/17) No Moon Set
Length of Visible Light 10h 17m
Length of Day
9h 12m
Waxing Crescent, 37% of the Moon is Illuminated
Jan 17
Waxing Crescent
Jan 18
First Quarter
Jan 26
Full
Feb 3
Last Quarter
Feb 10
New

Hourly Weather History & Observations

Time (EST) Temp. Windchill Dew Point Humidity Pressure Visibility Wind Dir Wind Speed Gust Speed Precip Events Conditions
12:15 AM 23.2 °F 8.2 °F 12.6 °F 64% 29.99 in 5.0 mi NNW 20.7 mph 28.8 mph N/A   Haze
12:34 AM 22.6 °F 9.2 °F 17.6 °F 81% 30.00 in 7.0 mi North 16.1 mph 26.5 mph N/A Snow Light Snow
12:55 AM 21.9 °F 8.7 °F 15.4 °F 76% 30.02 in 10.0 mi North 15.0 mph 25.3 mph N/A   Overcast
1:15 AM 21.4 °F 8.0 °F 14.0 °F 73% 30.02 in 10.0 mi NNW 15.0 mph 23.0 mph N/A   Overcast
1:34 AM 21.0 °F 7.6 °F 14.0 °F 74% 30.04 in 10.0 mi North 15.0 mph 20.7 mph N/A   Overcast
1:55 AM 20.7 °F 7.1 °F 12.4 °F 70% 30.05 in 10.0 mi North 15.0 mph 23.0 mph N/A   Overcast
2:14 AM 19.8 °F 5.9 °F 11.8 °F 71% 30.06 in 10.0 mi NNW 15.0 mph 20.7 mph N/A   Overcast
2:35 AM 19.4 °F 7.2 °F 11.3 °F 71% 30.09 in 10.0 mi North 11.5 mph 20.7 mph N/A   Overcast
2:54 AM 18.5 °F 3.3 °F 10.8 °F 72% 30.09 in 10.0 mi North 17.3 mph 23.0 mph N/A   Overcast
3:15 AM 18.3 °F 6.6 °F 11.1 °F 73% 30.11 in 10.0 mi North 10.4 mph 17.3 mph N/A   Overcast
3:34 AM 18.3 °F 4.6 °F 9.1 °F 67% 30.12 in 10.0 mi NNW 13.8 mph 20.7 mph N/A   Overcast
3:55 AM 17.8 °F 5.2 °F 9.3 °F 69% 30.12 in 7.0 mi NNW 11.5 mph 19.6 mph N/A   Overcast
4:35 AM 17.1 °F 2.5 °F 6.8 °F 64% 30.13 in 10.0 mi NNW 15.0 mph 21.9 mph N/A   Overcast
4:54 AM 16.7 °F 3.8 °F 7.3 °F 67% 30.14 in 10.0 mi NNW 11.5 mph 21.9 mph N/A   Overcast
5:15 AM 16.5 °F 3.6 °F 6.6 °F 65% 30.14 in 10.0 mi NNW 11.5 mph 19.6 mph N/A   Overcast
5:34 AM 16.2 °F 4.7 °F 7.3 °F 68% 30.16 in 10.0 mi NNW 9.2 mph 21.9 mph N/A   Overcast
5:55 AM 15.8 °F 1.4 °F 8.1 °F 72% 30.16 in 7.0 mi NNW 13.8 mph 20.7 mph N/A   Overcast
6:15 AM 15.8 °F 2.7 °F 8.4 °F 73% 30.16 in 5.0 mi NNW 11.5 mph 17.3 mph N/A   Haze
6:34 AM 16.0 °F 2.9 °F 8.4 °F 72% 30.17 in 10.0 mi North 11.5 mph 18.4 mph N/A   Overcast
6:55 AM 15.8 °F 2.7 °F 7.7 °F 70% 30.17 in 7.0 mi NNW 11.5 mph 17.3 mph N/A   Overcast
7:14 AM 16.2 °F 4.7 °F 8.6 °F 72% 30.17 in 7.0 mi North 9.2 mph - N/A   Overcast
7:34 AM 15.8 °F 3.4 °F 9.7 °F 77% 30.18 in 4.0 mi NNW 10.4 mph - N/A Snow Light Snow
7:55 AM 15.8 °F 3.4 °F 10.2 °F 79% 30.19 in 2.5 mi NNW 10.4 mph - N/A Snow Light Snow
8:14 AM 15.8 °F 5.1 °F 10.6 °F 80% 30.19 in 1.8 mi NW 8.1 mph - N/A Snow Light Snow
8:35 AM 16.3 °F 6.7 °F 11.3 °F 81% 30.20 in 1.2 mi NW 6.9 mph - N/A Snow Light Snow
8:55 AM 16.9 °F 3.4 °F 9.1 °F 72% 30.21 in 7.0 mi West 12.7 mph 18.4 mph N/A   Overcast
9:14 AM 16.7 °F 1.5 °F 7.5 °F 67% 30.22 in 10.0 mi WNW 16.1 mph 21.9 mph N/A   Overcast
9:35 AM 16.5 °F 1.3 °F 6.6 °F 65% 30.23 in 5.0 mi WNW 16.1 mph 21.9 mph N/A   Haze
9:55 AM 15.8 °F 1.4 °F 6.4 °F 67% 30.24 in 4.0 mi West 13.8 mph 26.5 mph N/A   Haze
10:14 AM 16.2 °F 0.8 °F 5.2 °F 62% 30.24 in 10.0 mi West 16.1 mph 25.3 mph N/A   Overcast
10:35 AM 16.3 °F 0.5 °F 6.1 °F 64% 30.24 in 7.0 mi West 17.3 mph - N/A   Overcast
10:55 AM 15.6 °F -0.4 °F 5.2 °F 63% 30.25 in 5.0 mi West 17.3 mph - N/A   Haze
11:14 AM 15.6 °F -0.4 °F 6.8 °F 68% 30.24 in 2.5 mi West 17.3 mph 21.9 mph N/A   Haze
11:35 AM 14.9 °F -2.3 °F 5.5 °F 66% 30.23 in 2.0 mi West 19.6 mph 24.2 mph N/A   Haze
11:54 AM 15.6 °F -0.9 °F 6.1 °F 66% 30.23 in 3.0 mi West 18.4 mph 26.5 mph N/A   Haze
12:15 PM 15.3 °F -1.3 °F 5.0 °F 64% 30.22 in 4.0 mi West 18.4 mph 24.2 mph N/A   Haze
12:34 PM 15.4 °F -0.6 °F 3.7 °F 60% 30.22 in 4.0 mi WNW 17.3 mph 25.3 mph N/A   Haze
12:55 PM 16.2 °F -0.2 °F 5.2 °F 62% 30.21 in 5.0 mi WNW 18.4 mph 25.3 mph N/A   Haze
1:15 PM 14.9 °F -3.5 °F 5.2 °F 65% 30.21 in 4.0 mi West 23.0 mph 26.5 mph N/A   Haze
1:35 PM 14.7 °F -4.1 °F 5.4 °F 66% 30.21 in 5.0 mi West 24.2 mph 31.1 mph N/A   Haze
1:55 PM 14.9 °F -2.7 °F 3.2 °F 60% 30.20 in 5.0 mi West 20.7 mph 27.6 mph N/A   Haze
2:15 PM 14.5 °F -4.0 °F 3.9 °F 63% 30.20 in 5.0 mi WNW 23.0 mph 29.9 mph N/A   Haze
2:35 PM 14.7 °F -3.8 °F 4.3 °F 63% 30.19 in 4.0 mi WNW 23.0 mph 29.9 mph N/A   Haze
2:55 PM 14.2 °F -4.1 °F 7.2 °F 74% 30.20 in 1.5 mi West 21.9 mph 29.9 mph N/A Snow Light Snow
3:14 PM 14.4 °F -2.0 °F 7.2 °F 73% 30.19 in 1.5 mi West 17.3 mph 27.6 mph N/A Snow Light Snow
3:35 PM 14.7 °F -2.5 °F 3.9 °F 62% 30.19 in 2.5 mi West 19.6 mph 27.6 mph N/A   Haze
3:55 PM 14.9 °F -1.3 °F 3.9 °F 62% 30.20 in 4.0 mi WNW 17.3 mph 29.9 mph N/A   Haze
4:14 PM 14.9 °F -2.3 °F 2.8 °F 59% 30.20 in 7.0 mi WNW 19.6 mph 28.8 mph N/A   Overcast
4:35 PM 15.4 °F -2.4 °F 4.5 °F 62% 30.21 in 5.0 mi WNW 21.9 mph 27.6 mph N/A Snow Light Snow
4:54 PM 15.3 °F -1.8 °F 3.0 °F 58% 30.21 in 3.0 mi WNW 19.6 mph 25.3 mph N/A   Haze
5:15 PM 15.4 °F -0.1 °F 1.4 °F 54% 30.22 in 5.0 mi WNW 16.1 mph 29.9 mph N/A   Haze
5:34 PM 15.6 °F 0.1 °F 2.5 °F 56% 30.23 in 5.0 mi WNW 16.1 mph 26.5 mph N/A   Haze
5:54 PM 15.6 °F -0.4 °F 2.3 °F 56% 30.23 in 10.0 mi WNW 17.3 mph 25.3 mph N/A   Overcast
6:15 PM 15.8 °F 1.4 °F 1.8 °F 54% 30.24 in 7.0 mi NW 13.8 mph 32.2 mph N/A   Overcast
6:34 PM 15.6 °F 0.1 °F 1.8 °F 54% 30.25 in 10.0 mi WNW 16.1 mph 21.9 mph N/A   Overcast
6:55 PM 15.4 °F -0.1 °F 0.3 °F 51% 30.26 in 10.0 mi NW 16.1 mph 25.3 mph N/A   Overcast
7:14 PM 15.3 °F -1.8 °F 4.5 °F 62% 30.27 in 5.0 mi WNW 19.6 mph 29.9 mph N/A   Haze
7:35 PM 15.3 °F -1.8 °F 2.5 °F 57% 30.27 in 7.0 mi WNW 19.6 mph 25.3 mph N/A   Overcast
7:54 PM 14.9 °F -3.1 °F 0.1 °F 52% 30.28 in 10.0 mi WNW 21.9 mph 29.9 mph N/A   Overcast
8:15 PM 14.9 °F -1.8 °F 2.8 °F 59% 30.28 in 10.0 mi WNW 18.4 mph 25.3 mph N/A   Overcast
8:35 PM 14.7 °F -1.6 °F 0.7 °F 54% 30.29 in 7.0 mi WNW 17.3 mph 33.4 mph N/A   Overcast
8:54 PM 14.5 °F -1.3 °F 1.8 °F 57% 30.29 in 10.0 mi WNW 16.1 mph 25.3 mph N/A   Overcast
9:15 PM 14.5 °F -1.8 °F 3.9 °F 63% 30.30 in 5.0 mi WNW 17.3 mph 25.3 mph N/A Snow Light Snow
9:55 PM 14.0 °F -2.5 °F 0.9 °F 56% 30.30 in 10.0 mi WNW 17.3 mph 26.5 mph N/A   Mostly Cloudy
10:14 PM 14.4 °F -4.2 °F 2.1 °F 58% 30.30 in 10.0 mi WNW 23.0 mph 33.4 mph N/A   Overcast
10:35 PM 14.4 °F -3.4 °F 2.7 °F 60% 30.30 in 10.0 mi West 20.7 mph 26.5 mph N/A   Overcast
10:54 PM 14.4 °F -0.4 °F 2.1 °F 58% 30.30 in 10.0 mi West 13.8 mph - N/A   Overcast
11:15 PM 14.5 °F -0.7 °F 2.7 °F 59% 30.29 in 10.0 mi NW 15.0 mph - N/A   Overcast
11:34 PM 14.7 °F -2.0 °F 3.6 °F 61% 30.30 in 7.0 mi WNW 18.4 mph 23.0 mph N/A   Overcast
11:55 PM 14.7 °F 0.7 °F 3.6 °F 61% 30.30 in 7.0 mi WNW 12.7 mph 20.7 mph N/A   Overcast